STARLINK-4615, 53620

Orbit data source: Space-Track

STARLINK-4615, 53620 is a payload satellite owned by SpaceX/Seattle (US) in LEO that was launched on Sun, 28 Aug 2022 UTC via an FALCON 9 launch vehicle from the Air Force Eastern Test Range (AFETR). Payload-class satellites include a variety of spacecraft equipped with specific instruments for various scientific and technological missions. These include communications satellites like Starlink; space stations such as the ISS; scientific satellites like the Hubble; Earth observation satellites from companies like Planet Labs, Umbra, and HawkEye 360; GPS; miniature CubeSats for education and research; and military/defense satellites.

Loading next visibility...
Identifier
53620, 2022-104AJ
Orbit
LEO
Country
Flag of USUS
Related business
Manufacturer
SpaceX/Seattle
Mission
Operational Commercial Communications
Bus & Motor
STARLINK, Unknown motor
Mass
300 kg wet, ~290 kg dry
Launch date (UTC)
2022-08-28 (4 years ago)
Launch vehicle
FALCON 9
Launch site
Air Force Eastern Test Range (AFETR)
Object type
Payload
Rocket body
Debris
Shape & HBR
Box + 1 Pan, 10.1 m
Radar Cross Section
13.562 m², Large (>1 m²)

Expand to show TLE details & history
Last TLE update: 7 hours ago

TLE from 7 hours ago
0 STARLINK-4615
1 53620U 22104AJ  26253.75002315 -.00021828  00000-0 -63661-3 0  9994
2 53620  53.1589 113.3417 0001453  90.6505  29.1077 15.34406621  5853
Epoch: 2026-09-10T18:00Z
TLE epoch observation values (Epoch: 2026-09-10T18:00:02.000Z)
Latitude
44.14363°
Longitude
-12.7626°
Altitude
466.306 km
Speed
7.639 km/s
True Right ascension
16h 28m 06s
True Declination
43° 57' 52"
Sunlit
Object was in daylight at epoch
Visualization orbit readout
Latitude
Unknown
Longitude
Unknown
Altitude
Unknown
Speed
Unknown
Apparent Right ascension
Unknown
Apparent Declination
Unknown
Sunlit
N/A
Visualization observer readout
Local Sidereal Time
17:47:58
Azimuth
Unknown
Elevation
Unknown
Doppler factor
Unknown
Orbital elements
Apogee altitude
463.935 km
Perigee altitude
461.947 km
Semi-major axis
6,841.078 km
Eccentricity
0.00015
Inclination
53.1589°
RAAN
113.3417°
Arg. of periapsis
90.6505°
True anomaly
29.1158°
Mean anomaly
29.1077°
Eccentric anomaly
29.11175°
Mean motion
3.8358 °/min
Orbital period
93.85 mins
BSTAR
-0.00063661
Loading maneuver chart data...
Computing Atmospheric mass density...
Loading historical data...
Loading historical data...
Loading historical data...
Loading historical data...
Loading historical data...
Loading historical data...
Loading historical data...

Documentation

Showing up to 5 results
|